Satellite: OBJECTC
Catalog number: 35003
Epoch time:      09141.79589500
Element set:       5
Inclination:      040.4708 deg
RA of node:       038.4423 deg
Eccentricity:    0.0029441
Arg of perigee:   329.4663 deg
Mean anomaly:     030.4439 deg
Mean motion:   15.39779563 rev/day
Decay rate:      1.235e-05 rev/day^2
Epoch rev:              28
Checksum:              281

Satellite: OBJECTE
Catalog number: 35005
Epoch time:      09141.80158962
Element set:       1
Inclination:      040.4690 deg
RA of node:       038.4087 deg
Eccentricity:    0.0024131
Arg of perigee:   329.7663 deg
Mean anomaly:     061.0596 deg
Mean motion:   15.39658797 rev/day
Decay rate:      -2.46e-06 rev/day^2
Epoch rev:              27
Checksum:              286

/EX






More information about the Keps mailing list